カタログに戻る

ONEWEB-0113

運用中通信PO
NORAD 48050·PAYLOAD·🇬🇧 United Kingdom

打ち上げ Mar 25, 2021 から Vostochny Cosmodrome

Loading…

次のパス (今後24時間)

TLE

最新Source: CelesTrak SupGP

元期: Sep 14, 2026, 15:59 UTC

1 48050C 21025J   26257.66614995  .00000143  00000+0  38923-3 0  2577
2 48050  87.8921 302.3224 0001962 101.2716 345.0924 13.13895404    12

AllMySatでONEWEB-0113をリアルタイム追跡

Download on the App Store